FENGYUN 2H DEB, 43645

Orbit data source: Space-Track

FENGYUN 2H DEB, 43645 is space debris in GEO originally from a launch on Tue, 05 Jun 2018 UTC launched from the Xichang Space Center, China (XSC). Debris objects in space refer to the collection of defunct objects orbiting the Earth. Examples of debris include non-operational satellites, rocket bodies, and fragments generated from explosions, collisions, or faulty payload assembly.

Not visible in the next 10 days
Identifier
43645, 2018-050D
Orbit
GEO
Last TLE update
1 day ago
Origin
Manufacturer
SISE
Mission
Spacecraft
Bus & Motor
Unknown
Mass
Unknown
Launch date (UTC)
2018-06-05 (7 years ago)
Launch vehicle
Unknown
Launch site
Xichang Space Center, China (XSC)
Object type
Payload
Rocket body
Debris
Shape & HBR
Cyl, 0.5 m
Radar Cross Section
0.137 m²

Expand to show TLE details & history

TLE from 1 day ago
0 FENGYUN 2H DEB
1 43645U 18050D   25185.22865966 -.00000068  00000-0  00000-0 0  9996
2 43645   4.0053  80.7519 0041537 262.5660  96.7241  1.00220224 25439
Epoch: 2025-07-04T05:29Z
TLE epoch observation values (Epoch: 2025-07-04T05:29:16.194Z)
Latitude
-0.00001°
Longitude
75.71838°
Altitude
35,822.327 km
Speed
3.073 km/s
True Right ascension
05h 22m 04s
True Declination
0° 00' 00"
Sunlit
Object was in daylight at epoch
Visualization orbit readout
Latitude
1.96128°
Longitude
104.8255°
Altitude
35,903.882 km
Speed
3.067 km/s
Apparent Right ascension
07h 18m 18s
Apparent Declination
-3° 11' 11"
Sunlit
Object is in daylight
Visualization observer readout
Local Sidereal Time
19:16:33
Azimuth
359.273° N
Elevation
-53.268°
Doppler factor
1
Orbital elements
Apogee altitude
35,977.322 km
Perigee altitude
35,626.914 km
Semi-major axis
42,180.255 km
Eccentricity
0.00415
Inclination
4.0053°
RAAN
80.7519°
Arg. of periapsis
262.566°
True anomaly
Unknown
Mean anomaly
96.7241°
Eccentric anomaly
Unknown
Mean motion
0.25054 °/min
Orbital period
1,436.89 mins
BSTAR
0
Loading historical data...
43645 neighbors
Loading maneuver chart data...
Loading SW <> Apogee altitude chart data...
Loading historical data...
Loading historical data...
Loading historical data...
Loading historical data...
Loading historical data...
Loading historical data...
Loading historical data...
Other satellites on launch #50 in the year 2018 (2018-06-05 UTC)

FENGYUN 2H DEB Visibility

Observer location: undefined°, undefined°

FENGYUN 2H DEB is likely not visible in the next few days
Span
Click to sort rows by Start time (UTC) header in descending order
Start Az.
Max El. time (UTC)
Max El. Az.
Max El.
End time (UTC)
End Az.
|